This is the latest recevied weather packets stored in our database for station/object OZ1IEP-5. If no packets are shown the sender has not sent any weather packets the latest 10 day(s).
| Time | Temp. | Humidity | Pressure | Rain* | Wind** | Luminosity | Snow |
|---|---|---|---|---|---|---|---|
| 1788103809 | 18.89° C | 92% | 1002.2 hPa | 0 mm | - | 58 W/m² | - |
| 1788103206 | 18.89° C | 92% | 1002 hPa | 0 mm | - | 62 W/m² | - |
| 1788102606 | 19.44° C | 93% | 1001.9 hPa | 0.25 mm | - | 58 W/m² | - |
| 1788102008 | 19.44° C | 93% | 1001.8 hPa | 1.52 mm | - | 77 W/m² | - |
| 1788101406 | 18.89° C | 93% | 1001.7 hPa | 3.05 mm | - | 179 W/m² | - |
| 1788100805 | 19.44° C | 93% | 1001.4 hPa | 4.06 mm | - | 132 W/m² | - |
| 1788100209 | 18.89° C | 92% | 1001.4 hPa | 4.06 mm | - | 107 W/m² | - |
| 1788099606 | 18.89° C | 92% | 1001.3 hPa | 4.06 mm | - | 77 W/m² | - |
| 1788099006 | 18.89° C | 92% | 1001.3 hPa | 3.81 mm | - | 107 W/m² | - |
| 1788098409 | 18.89° C | 92% | 1001 hPa | 2.29 mm | - | 56 W/m² | - |
| 1788097806 | 19.44° C | 92% | 1000.9 hPa | 1.02 mm | - | 30 W/m² | - |
| 1788097206 | 19.44° C | 92% | 1000.9 hPa | 0 mm | - | 70 W/m² | - |
| 1788096608 | 19.44° C | 92% | 1000.9 hPa | 0 mm | - | 232 W/m² | - |
| 1788096006 | 19.44° C | 93% | 1000.9 hPa | 0 mm | - | 230 W/m² | - |
| 1788095406 | 19.44° C | 93% | 1000.8 hPa | 0.25 mm | - | 387 W/m² | - |
| 1788094809 | 18.89° C | 93% | 1000.8 hPa | 0.25 mm | - | 162 W/m² | - |
| 1788094205 | 18.89° C | 93% | 1000.8 hPa | 0.25 mm | - | 253 W/m² | - |
| 1788093605 | 18.33° C | 93% | 1000.8 hPa | 0.25 mm | - | 172 W/m² | - |
| 1788093008 | 18.33° C | 93% | 1000.7 hPa | 0.25 mm | - | 113 W/m² | - |
| 1788092405 | 18.33° C | 93% | 1000.7 hPa | 0.25 mm | - | 98 W/m² | - |
| 1788091806 | 18.33° C | 93% | 1000.8 hPa | 0.25 mm | - | 151 W/m² | - |
| 1788091208 | 18.33° C | 93% | 1000.7 hPa | 0.25 mm | - | 77 W/m² | - |
| 1788090606 | 18.89° C | 93% | 1000.6 hPa | 0.25 mm | - | 86 W/m² | - |
| 1788090006 | 18.89° C | 93% | 1000.7 hPa | 0.25 mm | - | 141 W/m² | - |
| 1788089408 | 18.89° C | 93% | 1000.5 hPa | 0.51 mm | - | 162 W/m² | - |
* Rain latest hour (hover to see other rain measurements)
** Current wind speed in m/s (hover to see current wind gust speed)